Marshall, MN

12:53 AM CDT on March 24, 2017 (GMT -0500)
Marshall Municipal-Ryan

Weather History for KMML - October, 2013

Change the Weather History Date:

Friday, October 11, 2013

  Actual Average Record
Temperature  
Mean Temperature 62 °F -  
Max Temperature 71 °F 62 °F 87 °F (2015)
Min Temperature 53 °F 38 °F 20 °F (1987)
Degree Days  
Heating Degree Days 3    
Growing Degree Days 12 (Base 50)    
Moisture  
Dew Point 49 °F    
Average Humidity 61    
Maximum Humidity 77    
Minimum Humidity 46    
Precipitation  
Precipitation 0.05 in - - ()
Sea Level Pressure  
Sea Level Pressure 29.63 in    
Wind  
Wind Speed 19 mph (South)    
Max Wind Speed 29 mph    
Max Gust Speed 41 mph    
Visibility 10 miles    
Events      
Averages and records for this station are not official NWS values.
T = Trace of Precipitation, MM = Missing Value Source: NWS Daily Summary

Daily Weather History Graph

Daily Weather History Graph

Search for Another Location

Airport or City:

Trip Planner

Search our weather history database for the weather conditions in past years. The results will help you decide how hot, cold, wet, or windy it might be!

Date:

Astronomy

Oct. 11, 2013 Rise Set
Actual Time 7:33 AM CDT 6:45 PM CDT
Civil Twilight 7:04 AM CDT 7:14 PM CDT
Nautical Twilight 6:30 AM CDT 7:48 PM CDT
Astronomical Twilight 5:57 AM CDT 8:21 PM CDT
Moon 2:23 PM CDT (10/11) No Moon Set
Length of Visible Light 12h 10m
Length of Day
11h 11m
Waxing Crescent, 47% of the Moon is Illuminated
Oct 11
Waxing Crescent
Oct 11
First Quarter
Oct 18
Full
Oct 26
Last Quarter
Nov 3
New

Hourly Weather History & Observations

Time (CDT) Temp. Dew Point Humidity Pressure Visibility Wind Dir Wind Speed Gust Speed Precip Events Conditions
12:15 AM 66.2 °F 46.4 °F 49% 29.73 in 10.0 mi South 21.9 mph 27.6 mph N/A   Clear
12:35 AM 66.2 °F 46.4 °F 49% 29.74 in 10.0 mi South 20.7 mph 26.5 mph N/A   Clear
12:55 AM 64.4 °F 46.4 °F 52% 29.74 in 10.0 mi South 18.4 mph 26.5 mph N/A   Clear
1:15 AM 64.4 °F 48.2 °F 56% 29.73 in 10.0 mi South 15.0 mph 25.3 mph N/A   Clear
1:35 AM 64.4 °F 48.2 °F 56% 29.73 in 10.0 mi South 13.8 mph - N/A   Clear
1:55 AM 64.4 °F 48.2 °F 56% 29.73 in 10.0 mi South 16.1 mph - N/A   Clear
2:15 AM 64.4 °F 48.2 °F 56% 29.73 in 10.0 mi South 16.1 mph - N/A   Clear
2:35 AM 64.4 °F 48.2 °F 56% 29.73 in 10.0 mi South 17.3 mph 24.2 mph N/A   Clear
2:55 AM 64.4 °F 48.2 °F 56% 29.74 in 10.0 mi South 15.0 mph - N/A   Clear
3:15 AM 64.4 °F 48.2 °F 56% 29.74 in 10.0 mi South 16.1 mph 21.9 mph N/A   Clear
3:35 AM 64.4 °F 48.2 °F 56% 29.73 in 10.0 mi South 15.0 mph - N/A   Clear
3:55 AM 62.6 °F 48.2 °F 59% 29.73 in 10.0 mi South 16.1 mph 23.0 mph N/A   Clear
4:15 AM 62.6 °F 48.2 °F 59% 29.71 in 10.0 mi SSE 16.1 mph - N/A   Clear
4:35 AM 62.6 °F 48.2 °F 59% 29.70 in 10.0 mi SSE 12.7 mph - N/A   Clear
4:55 AM 60.8 °F 48.2 °F 63% 29.70 in 10.0 mi SSE 12.7 mph - N/A   Clear
5:15 AM 60.8 °F 48.2 °F 63% 29.69 in 10.0 mi SSE 13.8 mph - N/A   Clear
5:35 AM 60.8 °F 48.2 °F 63% 29.69 in 10.0 mi SSE 12.7 mph - N/A   Clear
5:55 AM 60.8 °F 48.2 °F 63% 29.69 in 10.0 mi SSE 13.8 mph - N/A   Clear
6:15 AM 60.8 °F 48.2 °F 63% 29.68 in 10.0 mi SE 13.8 mph - N/A   Clear
6:35 AM 60.8 °F 48.2 °F 63% 29.67 in 10.0 mi SE 13.8 mph - N/A   Clear
6:55 AM 60.8 °F 48.2 °F 63% 29.67 in 10.0 mi SSE 15.0 mph - N/A   Clear
7:15 AM 60.8 °F 48.2 °F 63% 29.67 in 10.0 mi SSE 15.0 mph 19.6 mph N/A   Clear
7:35 AM 60.8 °F 48.2 °F 63% 29.66 in 10.0 mi SE 15.0 mph - N/A   Clear
7:55 AM 60.8 °F 50.0 °F 68% 29.66 in 10.0 mi SE 13.8 mph - N/A   Clear
8:15 AM 60.8 °F 50.0 °F 68% 29.66 in 10.0 mi SE 15.0 mph 19.6 mph N/A   Clear
8:35 AM 60.8 °F 50.0 °F 68% 29.66 in 10.0 mi SSE 15.0 mph 21.9 mph N/A   Clear
8:55 AM 60.8 °F 50.0 °F 68% 29.65 in 10.0 mi SSE 18.4 mph 25.3 mph N/A   Clear
9:15 AM 62.6 °F 50.0 °F 63% 29.61 in 10.0 mi SE 20.7 mph 29.9 mph N/A   Scattered Clouds
9:35 AM 62.6 °F 50.0 °F 63% 29.61 in 10.0 mi SE 18.4 mph 24.2 mph N/A   Partly Cloudy
9:55 AM 60.8 °F 51.8 °F 72% 29.63 in 10.0 mi SE 20.7 mph - N/A   Scattered Clouds
10:15 AM 60.8 °F 51.8 °F 72% 29.64 in 9.0 mi South 16.1 mph - 0.01 in   Mostly Cloudy
10:35 AM 60.8 °F 51.8 °F 72% 29.64 in 10.0 mi SSE 17.3 mph 21.9 mph 0.01 in   Overcast
10:55 AM 60.8 °F 51.8 °F 72% 29.62 in 10.0 mi SSE 16.1 mph 25.3 mph 0.02 in   Mostly Cloudy
11:15 AM 60.8 °F 53.6 °F 77% 29.63 in 10.0 mi SSE 18.4 mph 24.2 mph N/A   Mostly Cloudy
11:35 AM 59.0 °F 51.8 °F 77% 29.60 in 10.0 mi SSE 19.6 mph 28.8 mph 0.02 in   Scattered Clouds
11:55 AM 60.8 °F 53.6 °F 77% 29.59 in 10.0 mi SSE 19.6 mph 25.3 mph 0.02 in   Scattered Clouds
12:15 PM 60.8 °F 53.6 °F 77% 29.58 in 10.0 mi SSE 17.3 mph 25.3 mph N/A   Partly Cloudy
12:35 PM 62.6 °F 55.4 °F 77% 29.56 in 10.0 mi SSE 20.7 mph 25.3 mph N/A   Scattered Clouds
12:55 PM 62.6 °F 53.6 °F 72% 29.55 in 10.0 mi SSE 23.0 mph 32.2 mph N/A   Overcast
1:15 PM 62.6 °F 53.6 °F 72% 29.54 in 10.0 mi SSE 20.7 mph 32.2 mph N/A   Overcast
1:35 PM 62.6 °F 53.6 °F 72% 29.54 in 10.0 mi SSE 24.2 mph 33.4 mph N/A   Overcast
1:55 PM 64.4 °F 55.4 °F 73% 29.51 in 10.0 mi SSE 20.7 mph 32.2 mph N/A   Overcast
2:15 PM 66.2 °F 55.4 °F 68% 29.51 in 10.0 mi South 26.5 mph 32.2 mph N/A   Mostly Cloudy
2:35 PM 68.0 °F 55.4 °F 64% 29.51 in 10.0 mi South 25.3 mph 33.4 mph N/A   Overcast
2:55 PM 69.8 °F 55.4 °F 60% 29.49 in 10.0 mi South 26.5 mph 35.7 mph N/A   Overcast
3:15 PM - - N/A% 29.49 in 10.0 mi South 25.3 mph 32.2 mph N/A   Mostly Cloudy
3:35 PM 71.6 °F 55.4 °F 57% 29.50 in 10.0 mi South 28.8 mph 40.3 mph N/A   Mostly Cloudy
3:55 PM 71.6 °F 55.4 °F 57% 29.49 in 10.0 mi SSE 25.3 mph 33.4 mph N/A   Partly Cloudy
4:15 PM 71.6 °F 55.4 °F 57% 29.48 in 10.0 mi SSE 26.5 mph 35.7 mph N/A   Scattered Clouds
4:35 PM 71.6 °F 53.6 °F 53% 29.48 in 10.0 mi South 25.3 mph 34.5 mph N/A   Mostly Cloudy
4:55 PM - - N/A% 29.48 in 10.0 mi South 25.3 mph 41.4 mph N/A   Scattered Clouds
5:15 PM 71.6 °F 51.8 °F 50% 29.48 in 10.0 mi South 24.2 mph 34.5 mph N/A   Scattered Clouds
5:35 PM 66.2 °F 53.6 °F 64% 29.51 in 9.0 mi SW 19.6 mph 26.5 mph 0.01 in   Mostly Cloudy
5:55 PM 68.0 °F 46.4 °F 46% 29.52 in 10.0 mi SW 18.4 mph 24.2 mph 0.01 in   Mostly Cloudy
6:15 PM 68.0 °F 46.4 °F 46% 29.53 in 10.0 mi SW 20.7 mph 26.5 mph N/A   Partly Cloudy
6:35 PM 68.0 °F 46.4 °F 46% 29.53 in 10.0 mi SW 17.3 mph 21.9 mph N/A   Partly Cloudy
6:55 PM 66.2 °F 46.4 °F 49% 29.55 in 10.0 mi SW 16.1 mph 21.9 mph N/A   Scattered Clouds
7:15 PM 66.2 °F 46.4 °F 49% 29.55 in 10.0 mi WSW 15.0 mph 24.2 mph N/A   Partly Cloudy
7:35 PM 64.4 °F 46.4 °F 52% 29.57 in 10.0 mi WSW 20.7 mph 28.8 mph N/A   Clear
7:55 PM 62.6 °F 44.6 °F 52% 29.59 in 10.0 mi WSW 23.0 mph 32.2 mph N/A   Clear
8:15 PM 59.0 °F 44.6 °F 59% 29.61 in 10.0 mi WSW 21.9 mph 34.5 mph N/A   Clear
8:35 PM 57.2 °F 42.8 °F 59% 29.63 in 10.0 mi WSW 21.9 mph 32.2 mph N/A   Clear
8:55 PM 55.4 °F 42.8 °F 63% 29.64 in 10.0 mi WSW 19.6 mph 29.9 mph N/A   Clear
9:15 PM 55.4 °F 42.8 °F 63% 29.64 in 10.0 mi WSW 18.4 mph 28.8 mph N/A   Scattered Clouds
9:35 PM 55.4 °F 42.8 °F 63% 29.66 in 10.0 mi WSW 20.7 mph 27.6 mph N/A   Mostly Cloudy
9:55 PM 55.4 °F 41.0 °F 58% 29.66 in 10.0 mi West 21.9 mph 26.5 mph N/A   Mostly Cloudy
10:15 PM 53.6 °F 39.2 °F 58% 29.67 in 10.0 mi WSW 23.0 mph 28.8 mph N/A   Overcast
10:35 PM 53.6 °F 39.2 °F 58% 29.68 in 10.0 mi WSW 26.5 mph 32.2 mph N/A   Overcast
10:55 PM 53.6 °F 39.2 °F 58% 29.69 in 10.0 mi WSW 21.9 mph 31.1 mph N/A   Overcast
11:15 PM 53.6 °F 39.2 °F 58% 29.70 in 10.0 mi WSW 18.4 mph 26.5 mph N/A   Overcast
11:35 PM 53.6 °F 39.2 °F 58% 29.70 in 10.0 mi West 17.3 mph - N/A   Overcast
11:55 PM 53.6 °F 39.2 °F 58% 29.71 in 10.0 mi West 17.3 mph 21.9 mph N/A   Overcast